| time (UTC) | temp F | wind direction | speed MPH | gust MPH | rain 1hr in | rain 24hr in | rain mn in | humidity % | barometer mb |
| 20260506154858 | 56 | 58 | 5.0 | 10.0 | 0.00 | 0.00 | 0.00 | 79 | 1011.8 |
| 20260506154400 | 57 | 37 | 7.0 | 11.0 | 0.00 | 0.00 | 0.00 | 80 | 1011.8 |
| 20260506153859 | 57 | 333 | 6.0 | 12.0 | 0.00 | 0.00 | 0.00 | 80 | 1011.8 |
| 20260506153401 | 57 | 356 | 11.0 | 14.0 | 0.00 | 0.00 | 0.00 | 80 | 1011.8 |
| 20260506152902 | 57 | 18 | 7.0 | 12.0 | 0.00 | 0.00 | 0.00 | 80 | 1011.8 |
| 20260506152401 | 56 | 10 | 10.0 | 14.0 | 0.00 | 0.00 | 0.00 | 80 | 1011.8 |
| 20260506151858 | 56 | 21 | 7.0 | 9.0 | 0.00 | 0.00 | 0.00 | 79 | 1012.8 |
| 20260506151356 | 56 | 351 | 7.0 | 9.0 | 0.00 | 0.00 | 0.00 | 78 | 1012.8 |
| 20260506150855 | 55 | 271 | 6.0 | 6.0 | 0.00 | 0.00 | 0.00 | 76 | 1012.8 |
| 20260506150356 | 55 | 289 | 3.0 | 6.0 | 0.00 | 0.00 | 0.00 | 75 | 1011.8 |
| 20260506145834 | 55 | 289 | 6.0 | 12.0 | 0.00 | 0.00 | 0.00 | 73 | 1011.8 |
| 20260506145333 | 54 | 32 | 9.0 | 6.0 | 0.00 | 0.00 | 0.00 | 71 | 1011.8 |
| 20260506144834 | 54 | 290 | 3.0 | 5.0 | 0.00 | 0.00 | 0.00 | 67 | 1013.8 |
| 20260506144336 | 54 | 346 | 3.0 | 7.0 | 0.00 | 0.00 | 0.00 | 67 | 1013.8 |
| 20260506143835 | 54 | 299 | 0.0 | 7.0 | 0.00 | 0.00 | 0.00 | 66 | 1013.8 |
| 20260506143337 | 54 | 315 | 4.0 | 11.0 | 0.00 | 0.00 | 0.00 | 66 | 1013.8 |
| 20260506142839 | 54 | 7 | 7.0 | 9.0 | 0.00 | 0.00 | 0.00 | 66 | 1013.8 |
| 20260506142337 | 54 | 0 | 4.0 | 13.0 | 0.00 | 0.00 | 0.00 | 67 | 1013.8 |
| 20260506141839 | 53 | 22 | 12.0 | 16.0 | 0.00 | 0.00 | 0.00 | 66 | 1011.8 |
| 20260506141341 | 53 | 31 | 12.0 | 16.0 | 0.00 | 0.00 | 0.00 | 65 | 1011.8 |
| 20260506140840 | 54 | 16 | 9.0 | 15.0 | 0.00 | 0.00 | 0.00 | 63 | 1011.8 |
| 20260506140342 | 54 | 7 | 10.0 | 15.0 | 0.00 | 0.00 | 0.00 | 62 | 1012.8 |
| 20260506135844 | 54 | 64 | 8.0 | 14.0 | 0.00 | 0.00 | 0.00 | 61 | 1012.8 |
| 20260506135342 | 54 | 320 | 8.0 | 11.0 | 0.00 | 0.00 | 0.00 | 62 | 1012.8 |
| 20260506134346 | 53 | 34 | 10.0 | 14.0 | 0.00 | 0.00 | 0.00 | 62 | 1011.8 |
| 20260506133840 | 54 | 35 | 10.0 | 17.0 | 0.00 | 0.00 | 0.00 | 61 | 1011.8 |
| 20260506133342 | 53 | 29 | 10.0 | 14.0 | 0.00 | 0.00 | 0.00 | 61 | 1011.8 |
| 20260506132844 | 54 | 2 | 7.0 | 17.0 | 0.00 | 0.00 | 0.00 | 61 | 1011.8 |
| 20260506132343 | 53 | 39 | 12.0 | 12.0 | 0.00 | 0.00 | 0.00 | 60 | 1011.8 |
| 20260506131844 | 54 | 10 | 7.0 | 14.0 | 0.00 | 0.00 | 0.00 | 59 | 1011.8 |
| 20260506131342 | 54 | 10 | 12.0 | 17.0 | 0.00 | 0.00 | 0.00 | 59 | 1011.8 |
| 20260506130840 | 54 | 21 | 10.0 | 12.0 | 0.00 | 0.00 | 0.00 | 58 | 1011.8 |
| 20260506130342 | 54 | 8 | 7.0 | 14.0 | 0.00 | 0.00 | 0.00 | 57 | 1010.8 |
| 20260506125844 | 54 | 21 | 11.0 | 15.0 | 0.00 | 0.00 | 0.00 | 57 | 1010.8 |
| 20260506125338 | 54 | 23 | 11.0 | 15.0 | 0.00 | 0.00 | 0.00 | 54 | 1010.8 |
| 20260506124840 | 55 | 25 | 7.0 | 15.0 | 0.00 | 0.00 | 0.00 | 51 | 1010.8 |
| 20260506124342 | 55 | 5 | 11.0 | 14.0 | 0.00 | 0.00 | 0.00 | 50 | 1010.8 |
| 20260506123343 | 55 | 30 | 12.0 | 15.0 | 0.00 | 0.00 | 0.00 | 49 | 1010.8 |
| 20260506122844 | 55 | 287 | 9.0 | 14.0 | 0.00 | 0.00 | 0.00 | 48 | 1010.8 |
| 20260506121827 | 55 | 19 | 10.0 | 16.0 | 0.00 | 0.00 | 0.00 | 47 | 1009.8 |
| 20260506121328 | 55 | 37 | 9.0 | 15.0 | 0.00 | 0.00 | 0.00 | 47 | 1009.8 |
| 20260506120827 | 56 | 10 | 7.0 | 16.0 | 0.00 | 0.00 | 0.00 | 47 | 1009.8 |
| 20260506120329 | 55 | 47 | 12.0 | 16.0 | 0.00 | 0.00 | 0.00 | 47 | 1010.8 |
| 20260506115832 | 56 | 22 | 11.0 | 14.0 | 0.00 | 0.00 | 0.00 | 47 | 1010.8 |
| 20260506115324 | 56 | 44 | 11.0 | 10.0 | 0.00 | 0.00 | 0.00 | 47 | 1010.8 |
| 20260506114826 | 56 | 11 | 7.0 | 14.0 | 0.00 | 0.00 | 0.00 | 46 | 1009.8 |
| 20260506114328 | 56 | 32 | 10.0 | 11.0 | 0.00 | 0.00 | 0.00 | 46 | 1009.8 |
| 20260506113827 | 56 | 18 | 7.0 | 12.0 | 0.00 | 0.00 | 0.00 | 45 | 1009.8 |
| 20260506113329 | 56 | 13 | 7.0 | 14.0 | 0.00 | 0.00 | 0.00 | 45 | 1009.8 |
| 20260506112831 | 56 | 25 | 7.0 | 14.0 | 0.00 | 0.00 | 0.00 | 45 | 1009.8 |
| 20260506112329 | 56 | 25 | 10.0 | 13.0 | 0.00 | 0.00 | 0.00 | 45 | 1009.8 |
| 20260506111831 | 56 | 37 | 8.0 | 12.0 | 0.00 | 0.00 | 0.00 | 45 | 1009.8 |
| 20260506111334 | 57 | 57 | 9.0 | 13.0 | 0.00 | 0.00 | 0.00 | 46 | 1009.8 |
| 20260506110832 | 57 | 37 | 8.0 | 16.0 | 0.00 | 0.00 | 0.00 | 46 | 1009.8 |
| 20260506110333 | 57 | 17 | 9.0 | 13.0 | 0.00 | 0.00 | 0.00 | 47 | 1009.8 |
| 20260506105335 | 57 | 21 | 11.0 | 15.0 | 0.00 | 0.00 | 0.00 | 46 | 1009.8 |
| 20260506104836 | 57 | 17 | 9.0 | 15.0 | 0.00 | 0.00 | 0.00 | 46 | 1008.8 |
| 20260506103338 | 57 | 307 | 5.0 | 12.0 | 0.00 | 0.00 | 0.00 | 47 | 1008.8 |
| 20260506102841 | 58 | 339 | 10.0 | 13.0 | 0.00 | 0.00 | 0.00 | 47 | 1008.8 |
| 20260506102340 | 58 | 20 | 8.0 | 12.0 | 0.00 | 0.00 | 0.00 | 48 | 1008.8 |
| 20260506101841 | 58 | 23 | 10.0 | 12.0 | 0.00 | 0.00 | 0.00 | 48 | 1008.8 |
| 20260506100841 | 58 | 6 | 7.0 | 12.0 | 0.00 | 0.00 | 0.00 | 48 | 1008.8 |
| 20260506100339 | 58 | 324 | 5.0 | 12.0 | 0.00 | 0.00 | 0.00 | 48 | 1008.8 |
| 20260506095334 | 58 | 318 | 5.0 | 11.0 | 0.00 | 0.00 | 0.00 | 48 | 1008.8 |
| 20260506094836 | 58 | 356 | 7.0 | 11.0 | 0.00 | 0.00 | 0.00 | 48 | 1007.8 |
| 20260506093837 | 58 | 24 | 8.0 | 11.0 | 0.00 | 0.00 | 0.00 | 47 | 1007.8 |
| 20260506092339 | 58 | 26 | 9.0 | 12.0 | 0.00 | 0.00 | 0.00 | 48 | 1007.8 |
| 20260506091841 | 58 | 16 | 6.0 | 9.0 | 0.00 | 0.00 | 0.00 | 48 | 1007.8 |
| 20260506090842 | 59 | 7 | 8.0 | 12.0 | 0.00 | 0.00 | 0.00 | 48 | 1007.8 |
| 20260506090343 | 59 | 347 | 9.0 | 11.0 | 0.00 | 0.00 | 0.00 | 48 | 1007.8 |
| 20260506085846 | 59 | 30 | 7.0 | 10.0 | 0.00 | 0.00 | 0.00 | 48 | 1007.8 |
| 20260506085339 | 59 | 12 | 8.0 | 10.0 | 0.00 | 0.00 | 0.00 | 48 | 1007.8 |
| 20260506084841 | 59 | 20 | 6.0 | 11.0 | 0.00 | 0.00 | 0.00 | 48 | 1007.8 |
| 20260506083842 | 59 | 31 | 10.0 | 11.0 | 0.00 | 0.00 | 0.00 | 48 | 1007.8 |
| 20260506083343 | 60 | 2 | 7.0 | 10.0 | 0.00 | 0.00 | 0.00 | 48 | 1007.8 |
| 20260506082342 | 60 | 21 | 7.0 | 11.0 | 0.00 | 0.00 | 0.00 | 48 | 1007.8 |
| 20260506081845 | 60 | 9 | 7.0 | 11.0 | 0.00 | 0.00 | 0.00 | 47 | 1007.8 |
| 20260506080835 | 60 | 4 | 7.0 | 8.0 | 0.00 | 0.00 | 0.00 | 47 | 1007.8 |
| 20260506073333 | 61 | 26 | 6.0 | 9.0 | 0.00 | 0.00 | 0.00 | 50 | 1007.8 |
| 20260506072334 | 61 | 180 | 4.0 | 8.0 | 0.00 | 0.00 | 0.00 | 50 | 1007.8 |
| 20260506071338 | 61 | 19 | 7.0 | 9.0 | 0.00 | 0.00 | 0.00 | 50 | 1006.8 |
| 20260506070835 | 61 | 345 | 5.0 | 11.0 | 0.00 | 0.00 | 0.00 | 51 | 1006.8 |
| 20260506062328 | 61 | 34 | 8.0 | 10.0 | 0.00 | 0.00 | 0.00 | 51 | 1006.8 |
| 20260506061830 | 61 | 35 | 7.0 | 12.0 | 0.00 | 0.00 | 0.00 | 51 | 1007.8 |
| 20260506061331 | 61 | 154 | 7.0 | 13.0 | 0.00 | 0.00 | 0.00 | 51 | 1007.8 |
| 20260506060830 | 61 | 45 | 10.0 | 13.0 | 0.00 | 0.00 | 0.00 | 51 | 1007.8 |
| 20260506060333 | 62 | 5 | 7.0 | 13.0 | 0.00 | 0.00 | 0.00 | 51 | 1007.8 |
| 20260506051341 | 63 | 28 | 9.0 | 13.0 | 0.00 | 0.00 | 0.00 | 48 | 1007.8 |
| 20260506050342 | 64 | 36 | 9.0 | 12.0 | 0.00 | 0.00 | 0.00 | 47 | 1007.8 |
| 20260506044346 | 64 | 15 | 9.0 | 11.0 | 0.00 | 0.00 | 0.00 | 47 | 1006.8 |
| 20260506042844 | 65 | 24 | 10.0 | 15.0 | 0.00 | 0.00 | 0.00 | 47 | 1006.8 |
| 20260506042342 | 65 | 5 | 8.0 | 13.0 | 0.00 | 0.00 | 0.00 | 47 | 1006.8 |
| 20260506041845 | 65 | 81 | 8.0 | 17.0 | 0.00 | 0.00 | 0.00 | 46 | 1007.8 |
| 20260506041346 | 66 | 31 | 10.0 | 13.0 | 0.00 | 0.00 | 0.00 | 46 | 1007.8 |
| 20260506035848 | 67 | 335 | 9.0 | 11.0 | 0.00 | 0.00 | 0.00 | 44 | 1006.8 |
| 20260506035347 | 67 | 20 | 7.0 | 14.0 | 0.00 | 0.00 | 0.00 | 43 | 1006.8 |
| 20260506034850 | 67 | 343 | 7.0 | 14.0 | 0.00 | 0.00 | 0.00 | 43 | 1006.8 |
| 20260506034351 | 67 | 16 | 7.0 | 12.0 | 0.00 | 0.00 | 0.00 | 43 | 1006.8 |
| 20260506033845 | 67 | 34 | 7.0 | 15.0 | 0.00 | 0.00 | 0.00 | 42 | 1006.8 |
| 20260506033343 | 67 | 17 | 8.0 | 14.0 | 0.00 | 0.00 | 0.00 | 42 | 1006.8 |
| 20260506032844 | 67 | 31 | 9.0 | 14.0 | 0.00 | 0.00 | 0.00 | 41 | 1006.8 |
| 20260506031845 | 68 | 334 | 9.0 | 14.0 | 0.00 | 0.00 | 0.00 | 40 | 1005.8 |
| 20260506030845 | 68 | 38 | 9.0 | 15.0 | 0.00 | 0.00 | 0.00 | 40 | 1005.8 |
| 20260506030347 | 68 | 4 | 10.0 | 14.0 | 0.00 | 0.00 | 0.00 | 39 | 1005.8 |
| 20260506025850 | 68 | 21 | 8.0 | 12.0 | 0.00 | 0.00 | 0.00 | 38 | 1005.8 |
| 20260506024845 | 69 | 25 | 10.0 | 15.0 | 0.00 | 0.00 | 0.00 | 37 | 1005.8 |
| 20260506024346 | 69 | 10 | 12.0 | 13.0 | 0.00 | 0.00 | 0.00 | 37 | 1005.8 |
| 20260506023845 | 69 | 28 | 10.0 | 15.0 | 0.00 | 0.00 | 0.00 | 36 | 1005.8 |
| 20260506022845 | 69 | 17 | 11.0 | 14.0 | 0.00 | 0.00 | 0.00 | 36 | 1005.8 |
| 20260506022342 | 70 | 14 | 7.0 | 15.0 | 0.00 | 0.00 | 0.00 | 37 | 1005.8 |
| 20260506020343 | 71 | 18 | 7.0 | 14.0 | 0.00 | 0.00 | 0.00 | 36 | 1004.8 |
| 20260506015343 | 71 | 314 | 11.0 | 15.0 | 0.00 | 0.00 | 0.00 | 36 | 1004.8 |
| 20260506014845 | 72 | 53 | 7.0 | 15.0 | 0.00 | 0.00 | 0.00 | 35 | 1003.8 |
| 20260506014346 | 72 | 356 | 11.0 | 13.0 | 0.00 | 0.00 | 0.00 | 35 | 1003.8 |
| 20260506012848 | 73 | 48 | 10.0 | 12.0 | 0.00 | 0.00 | 0.00 | 33 | 1003.8 |
| 20260506011346 | 74 | 33 | 10.0 | 13.0 | 0.00 | 0.00 | 0.00 | 33 | 1003.8 |
| 20260506005844 | 75 | 315 | 6.0 | 8.0 | 0.00 | 0.00 | 0.00 | 31 | 1003.8 |
| 20260506005343 | 76 | 6 | 6.0 | 10.0 | 0.00 | 0.00 | 0.00 | 31 | 1003.8 |
| 20260506004845 | 76 | 36 | 7.0 | 10.0 | 0.00 | 0.00 | 0.00 | 31 | 1002.8 |
| 20260506004342 | 76 | 11 | 8.0 | 12.0 | 0.00 | 0.00 | 0.00 | 29 | 1002.8 |
| 20260506003831 | 76 | 346 | 9.0 | 12.0 | 0.00 | 0.00 | 0.00 | 29 | 1002.8 |
| 20260506002830 | 76 | 356 | 7.0 | 8.0 | 0.00 | 0.00 | 0.00 | 28 | 1002.8 |
| 20260506002329 | 77 | 41 | 5.0 | 8.0 | 0.00 | 0.00 | 0.00 | 27 | 1002.8 |
| 20260506001832 | 77 | 317 | 3.0 | 10.0 | 0.00 | 0.00 | 0.00 | 26 | 1002.8 |
| 20260506001328 | 77 | 337 | 5.0 | 11.0 | 0.00 | 0.00 | 0.00 | 26 | 1002.8 |
| 20260506000330 | 77 | 7 | 7.0 | 11.0 | 0.00 | 0.00 | 0.00 | 26 | 1002.8 |
| 20260505235829 | 78 | 356 | 5.0 | 12.0 | 0.00 | 0.00 | 0.00 | 26 | 1002.8 |
| 20260505234325 | 79 | 5 | 5.0 | 11.0 | 0.00 | 0.00 | 0.00 | 25 | 1002.8 |
| 20260505233322 | 79 | 46 | 4.0 | 11.0 | 0.00 | 0.00 | 0.00 | 24 | 1002.8 |
| 20260505232823 | 79 | 252 | 7.0 | 15.0 | 0.00 | 0.00 | 0.00 | 24 | 1002.8 |
| 20260505231824 | 80 | 329 | 4.0 | 14.0 | 0.00 | 0.00 | 0.00 | 24 | 1001.8 |
| 20260505231326 | 81 | 330 | 5.0 | 12.0 | 0.00 | 0.00 | 0.00 | 24 | 1001.8 |
| 20260505230903 | 82 | 342 | 8.0 | 10.0 | 0.00 | 0.00 | 0.00 | 23 | 1001.8 |
| 20260505230824 | 82 | 342 | 8.0 | 10.0 | 0.00 | 0.00 | 0.00 | 23 | 1001.8 |
| 20260505230326 | 83 | 340 | 5.0 | 11.0 | 0.00 | 0.00 | 0.00 | 20 | 1001.8 |
| 20260505225824 | 84 | 347 | 7.0 | 9.0 | 0.00 | 0.00 | 0.00 | 19 | 1001.8 |
| 20260505224824 | 84 | 14 | 7.0 | 12.0 | 0.00 | 0.00 | 0.00 | 19 | 1001.8 |
| 20260505224326 | 84 | 305 | 6.0 | 12.0 | 0.00 | 0.00 | 0.00 | 18 | 1001.8 |
| 20260505223322 | 85 | 288 | 6.0 | 9.0 | 0.00 | 0.00 | 0.00 | 18 | 1001.8 |
| 20260505222824 | 87 | 318 | 5.0 | 12.0 | 0.00 | 0.00 | 0.00 | 18 | 1001.8 |
| 20260505222317 | 86 | 351 | 4.0 | 12.0 | 0.00 | 0.00 | 0.00 | 18 | 1001.8 |
| 20260505221819 | 87 | 6 | 8.0 | 8.0 | 0.00 | 0.00 | 0.00 | 18 | 1001.8 |
| 20260505221321 | 90 | 297 | 4.0 | 7.0 | 0.00 | 0.00 | 0.00 | 17 | 1001.8 |
| 20260505220820 | 90 | 341 | 3.0 | 8.0 | 0.00 | 0.00 | 0.00 | 17 | 1001.8 |
| 20260505220322 | 90 | 276 | 3.0 | 10.0 | 0.00 | 0.00 | 0.00 | 17 | 1001.8 |
| 20260505215823 | 90 | 294 | 5.0 | 7.0 | 0.00 | 0.00 | 0.00 | 17 | 1001.8 |
| 20260505214824 | 90 | 321 | 5.0 | 7.0 | 0.00 | 0.00 | 0.00 | 17 | 1001.8 |
| 20260505214326 | 91 | 299 | 4.0 | 5.0 | 0.00 | 0.00 | 0.00 | 17 | 1001.8 |
| 20260505213327 | 91 | 204 | 3.0 | 7.0 | 0.00 | 0.00 | 0.00 | 17 | 1001.8 |
| 20260505212828 | 91 | 259 | 3.0 | 6.0 | 0.00 | 0.00 | 0.00 | 17 | 1001.8 |
| 20260505211829 | 90 | 271 | 4.0 | 7.0 | 0.00 | 0.00 | 0.00 | 17 | 1001.8 |
| 20260505211331 | 90 | 208 | 5.0 | 8.0 | 0.00 | 0.00 | 0.00 | 17 | 1001.8 |
| 20260505210929 | 90 | 187 | 4.0 | 12.0 | 0.00 | 0.00 | 0.00 | 17 | 1001.8 |
| 20260505210830 | 90 | 187 | 4.0 | 12.0 | 0.00 | 0.00 | 0.00 | 17 | 1001.8 |
| 20260505210331 | 90 | 29 | 4.0 | 11.0 | 0.00 | 0.00 | 0.00 | 17 | 1001.8 |
| 20260505205824 | 89 | 223 | 6.0 | 13.0 | 0.00 | 0.00 | 0.00 | 17 | 1001.8 |
| 20260505204825 | 90 | 183 | 4.0 | 10.0 | 0.00 | 0.00 | 0.00 | 18 | 1001.8 |
| 20260505204326 | 89 | 188 | 5.0 | 11.0 | 0.00 | 0.00 | 0.00 | 17 | 1001.8 |
| 20260505203826 | 90 | 261 | 4.0 | 7.0 | 0.00 | 0.00 | 0.00 | 17 | 1001.8 |
| 20260505202829 | 88 | 235 | 10.0 | 10.0 | 0.00 | 0.00 | 0.00 | 18 | 1001.8 |
| 20260505201830 | 89 | 176 | 4.0 | 12.0 | 0.00 | 0.00 | 0.00 | 18 | 1002.8 |
| 20260505201327 | 89 | 202 | 5.0 | 10.0 | 0.00 | 0.00 | 0.00 | 18 | 1002.8 |
| 20260505200826 | 88 | 213 | 7.0 | 10.0 | 0.00 | 0.00 | 0.00 | 19 | 1002.8 |
| 20260505200327 | 88 | 198 | 7.0 | 15.0 | 0.00 | 0.00 | 0.00 | 19 | 1002.8 |
| 20260505195829 | 88 | 142 | 7.0 | 12.0 | 0.00 | 0.00 | 0.00 | 19 | 1002.8 |
| 20260505195328 | 89 | 65 | 6.0 | 16.0 | 0.00 | 0.00 | 0.00 | 18 | 1002.8 |
| 20260505194830 | 88 | 100 | 6.0 | 18.0 | 0.00 | 0.00 | 0.00 | 20 | 1002.8 |
| 20260505194332 | 87 | 184 | 9.0 | 13.0 | 0.00 | 0.00 | 0.00 | 20 | 1002.8 |
| 20260505193830 | 87 | 210 | 10.0 | 18.0 | 0.00 | 0.00 | 0.00 | 20 | 1002.8 |
| 20260505193332 | 88 | 131 | 6.0 | 12.0 | 0.00 | 0.00 | 0.00 | 21 | 1002.8 |
| 20260505192333 | 87 | 226 | 10.0 | 19.0 | 0.00 | 0.00 | 0.00 | 22 | 1002.8 |
| 20260505191337 | 86 | 220 | 10.0 | 12.0 | 0.00 | 0.00 | 0.00 | 23 | 1002.8 |
| 20260505190835 | 87 | 7 | 7.0 | 12.0 | 0.00 | 0.00 | 0.00 | 22 | 1002.8 |
| 20260505190332 | 87 | 206 | 7.0 | 22.0 | 0.00 | 0.00 | 0.00 | 24 | 1002.8 |
| 20260505185834 | 87 | 150 | 6.0 | 15.0 | 0.00 | 0.00 | 0.00 | 23 | 1002.8 |
| 20260505185332 | 86 | 214 | 10.0 | 13.0 | 0.00 | 0.00 | 0.00 | 25 | 1002.8 |
| 20260505184825 | 86 | 226 | 7.0 | 20.0 | 0.00 | 0.00 | 0.00 | 26 | 1002.8 |
| 20260505184327 | 84 | 156 | 11.0 | 15.0 | 0.00 | 0.00 | 0.00 | 29 | 1002.8 |
| 20260505183826 | 85 | 196 | 8.0 | 18.0 | 0.00 | 0.00 | 0.00 | 29 | 1002.8 |
| 20260505183328 | 84 | 197 | 10.0 | 20.0 | 0.00 | 0.00 | 0.00 | 30 | 1002.8 |
| 20260505182328 | 83 | 217 | 11.0 | 16.0 | 0.00 | 0.00 | 0.00 | 31 | 1002.8 |
| 20260505181830 | 83 | 184 | 7.0 | 19.0 | 0.00 | 0.00 | 0.00 | 31 | 1002.8 |
| 20260505180830 | 83 | 176 | 9.0 | 18.0 | 0.00 | 0.00 | 0.00 | 30 | 1002.8 |
| 20260505180327 | 82 | 159 | 10.0 | 18.0 | 0.00 | 0.00 | 0.00 | 32 | 1002.8 |
| 20260505175830 | 82 | 141 | 11.0 | 21.0 | 0.00 | 0.00 | 0.00 | 31 | 1002.8 |
| 20260505175328 | 82 | 188 | 15.0 | 18.0 | 0.00 | 0.00 | 0.00 | 34 | 1002.8 |
| 20260505174825 | 82 | 198 | 12.0 | 18.0 | 0.00 | 0.00 | 0.00 | 33 | 1002.8 |
| 20260505174322 | 81 | 226 | 15.0 | 18.0 | 0.00 | 0.00 | 0.00 | 34 | 1002.8 |
| 20260505173821 | 81 | 152 | 13.0 | 15.0 | 0.00 | 0.00 | 0.00 | 35 | 1002.8 |
| 20260505173323 | 81 | 216 | 11.0 | 14.0 | 0.00 | 0.00 | 0.00 | 34 | 1002.8 |
| 20260505172825 | 81 | 242 | 9.0 | 18.0 | 0.00 | 0.00 | 0.00 | 36 | 1002.8 |
| 20260505172323 | 80 | 187 | 15.0 | 21.0 | 0.00 | 0.00 | 0.00 | 37 | 1002.8 |
| 20260505171825 | 80 | 215 | 15.0 | 20.0 | 0.00 | 0.00 | 0.00 | 38 | 1002.8 |
| 20260505171323 | 79 | 203 | 12.0 | 22.0 | 0.00 | 0.00 | 0.00 | 38 | 1002.8 |
| 20260505170821 | 79 | 189 | 13.0 | 22.0 | 0.00 | 0.00 | 0.00 | 39 | 1002.8 |
| 20260505170322 | 79 | 192 | 14.0 | 12.0 | 0.00 | 0.00 | 0.00 | 39 | 1002.8 |
| 20260505165825 | 80 | 158 | 6.0 | 20.0 | 0.00 | 0.00 | 0.00 | 37 | 1002.8 |
| 20260505164825 | 79 | 212 | 11.0 | 20.0 | 0.00 | 0.00 | 0.00 | 39 | 1002.8 |
| 20260505164327 | 78 | 184 | 16.0 | 16.0 | 0.00 | 0.00 | 0.00 | 40 | 1002.8 |
| 20260505163825 | 79 | 193 | 10.0 | 18.0 | 0.00 | 0.00 | 0.00 | 40 | 1002.8 |
| 20260505163327 | 79 | 198 | 9.0 | 20.0 | 0.00 | 0.00 | 0.00 | 40 | 1002.8 |
| 20260505162829 | 79 | 182 | 9.0 | 19.0 | 0.00 | 0.00 | 0.00 | 41 | 1002.8 |
| 20260505162328 | 78 | 186 | 14.0 | 24.0 | 0.00 | 0.00 | 0.00 | 41 | 1002.8 |
| 20260505161829 | 77 | 226 | 14.0 | 21.0 | 0.00 | 0.00 | 0.00 | 42 | 1002.8 |
| 20260505161332 | 78 | 213 | 13.0 | 25.0 | 0.00 | 0.00 | 0.00 | 42 | 1002.8 |
| 20260505160825 | 77 | 212 | 14.0 | 21.0 | 0.00 | 0.00 | 0.00 | 43 | 1002.8 |
| 20260505160326 | 77 | 178 | 15.0 | 21.0 | 0.00 | 0.00 | 0.00 | 43 | 1002.8 |